User: anonymous   Login
Location: South Tamworth Observatory
(43.8246°N, 71.3026°W)
Time: 10:03:05
(UTC-04:00)
Language:

Cosmos 2208 Rocket - Orbit

View from above orbital plane
View from above orbital plane
View from above satellite
View from above satellite

Ground track
Ground track

The orbit data is extracted from the following two-line orbital elements,

1 22081U 92053B   16240.51146630  .00000098  00000-0  44909-4 0  9998
2 22081  74.0423 254.0417 0037204 294.5415  65.1859 14.33336678256768
Epoch (UTC): 27 August 2016 12:16:30
Eccentricity: 0.0037204
inclination: 74.0423°
perigee height: 754 km
apogee height: 807 km
right ascension of ascending node: 254.0417°
argument of perigee: 294.5415°
revolutions per day: 14.33336678
mean anomaly at epoch: 65.1859°
orbit number at epoch: 25676

The dashed part of the orbit path shows where the satellite is in the earth's shadow,  

DLR